This demonstration page uses our WeatherBlox Daily Observations layout. Learn more.

Left ArrowRight Arrow

41.55636, -103.73856

Hourly Observations for April 30, 2020

Temp ( °F °C ) Dew Point ( °F °C ) Humidity (%) Winds ( mph kmh ) Pressure ( in mb ) Visibility ( mi km ) Precip ( " mm )
7:58 pm 19:58 Clear 61 16.3 24 -4.7 23 23 SE 9 15 30.09 1019 10 16 0.00 0.00
8:58 pm 20:58 Clear 58 14.7 24 -4.4 27 27 SSE 12 19 30.09 1019 10 16 0.00 0.00
9:58 pm 21:58 Clear 53 11.4 27 -2.6 38 38 SSW 8 13 30.11 1020 10 16 0.00 0.00
10:58 pm 22:58 Clear 55 12.6 24 -4.3 31 31 S 16 26 30.08 1019 10 16 0.00 0.00
11:58 pm 23:58 Clear 53 11.7 24 -4.3 33 33 S 15 24 30.06 1018 10 16 0.00 0.00
12:58 am 00:58 Clear 53 11.6 22 -5.7 30 30 S 21 33 30.02 1017 10 16 0.00 0.00
1:58 am 01:58 Mostly Clear 52 11 22 -5.7 31 31 S 23 37 29.96 1015 10 16 0.00 0.00
2:58 am 02:58 Clear 55 12.9 20 -6.9 25 25 S 14 22 29.93 1014 10 16 0.00 0.00
3:58 am 03:58 Clear 52 11.1 21 -5.9 30 30 SSW 21 33 29.93 1013 10 16 0.00 0.00
4:58 am 04:58 Clear 51 10.7 22 -5.3 32 32 SSW 23 37 29.89 1012 10 16 0.00 0.00
5:58 am 05:58 Sunny 52 10.9 23 -5.1 32 32 SSW 20 31 29.88 1012 10 16 0.00 0.00
6:58 am 06:58 Sunny 54 12.4 26 -3.2 34 34 SW 10 17 29.90 1013 10 16 0.00 0.00
7:58 am 07:58 Sunny 59 15 29 -1.6 32 32 SW 7 11 29.88 1012 10 16 0.00 0.00
8:58 am 08:58 Sunny 70 20.9 29 -1.5 22 22 SW 13 20 29.85 1011 10 16 0.00 0.00
9:58 am 09:58 Sunny 77 25.2 30 -1.3 17 17 SSW 13 20 29.83 1010 10 16 0.00 0.00
10:58 am 10:58 Sunny 81 27 28 -2 15 15 WNW 10 17 29.81 1009 10 16 0.00 0.00
11:58 am 11:58 Sunny 83 28.2 32 0.1 16 16 W 9 15 29.78 1008 10 16 0.00 0.00
12:58 pm 12:58 Sunny 84 28.9 29 -1.7 13 13 W 17 28 29.75 1008 10 16 0.00 0.00
1:58 pm 13:58 Sunny 84 28.9 30 -1.3 14 14 NW 15 24 29.74 1007 10 16 0.00 0.00
2:58 pm 14:58 Sunny 83 28.6 30 -0.9 15 15 NNW 13 20 29.70 1006 10 16 0.00 0.00
3:58 pm 15:58 Sunny 85 29.2 33 0.8 16 16 N 7 11 29.68 1005 10 16 0.00 0.00
4:58 pm 16:58 Sunny 82 27.6 34 1.2 18 18 Calm 29.67 1005 10 16 0.00 0.00
5:58 pm 17:58 Mostly Sunny 83 28.3 31 -0.5 15 15 S 5 7 29.66 1005 10 16 0.00 0.00

Powered by AerisWeather